Starlink 11614

operational
NORAD ID: 63270 Int'l Des: 2025-053 Owner: SPXS Country: US Constellation: starlink
LEOCIRCULAR

About Starlink 11614

Description loading...

Live Position

Loading 3D Globe...

Upcoming Passes

Altitude History

Altitude vs Time

uPlot chart will show altitude changes over time

Two-Line Element Set

1 63270U 25053F 25306.30883095 .00354954 00000-0 26415-2 0 9995
2 63270 42.9999 160.2330 0001238 283.7379 76.3350 15.70945606 37636
Epoch: Nov 2, 2025 • Age: 12 hours

Current Status

Altitude 362.0 km
Velocity 7.69 km/s
Sub-Earth Point -28.68°S, 147.76°E
Launch Date Mar 15, 2025
Age 0.6 years
Type internet

Technical Details

Classification Payload
Mass 960.00 kg
Dry Mass 910.00 kg
Total Mass 960.00 kg
Length 0.30 m
Diameter 4.10 m
Span 29.00 m
Shape Box + pan
Manufacturer SPXS
Bus Type Starlink V2MD
Phase Status In Orbit
Owner/State SPXS/US

Large Constellations

Loading constellations...